Time,TemperatureF,DewpointF,PressureIn,WindDirection,WindDirectionDegrees,WindSpeedMPH,WindSpeedGustMPH,Humidity,HourlyPrecipIn,Conditions,Clouds,dailyrainin,SoftwareType,DateUTC
2013-06-08 00:55:00,54.9,46.4,29.93,East,80,0.0,11.0,73,0.00,,,0.00,Wunderground v.1.15,2013-06-08 05:55:00,
2013-06-08 01:00:00,54.8,47.7,29.93,East,80,0.0,0.0,77,0.00,,,0.00,Wunderground v.1.15,2013-06-08 06:00:00,
2013-06-08 01:05:00,54.6,47.5,29.93,East,80,0.0,0.0,77,0.00,,,0.00,Wunderground v.1.15,2013-06-08 06:05:00,
2013-06-08 07:00:00,54.8,48.7,29.97,East,80,0.0,0.0,80,0.00,,,0.00,Wunderground v.1.15,2013-06-08 12:00:00,
2013-06-08 07:05:00,55.4,49.0,29.97,East,80,0.0,0.0,79,0.00,,,0.00,Wunderground v.1.15,2013-06-08 12:05:00,
2013-06-08 07:10:00,56.2,49.4,29.97,East,80,0.0,0.0,78,0.00,,,0.00,Wunderground v.1.15,2013-06-08 12:10:00,
2013-06-08 07:15:00,56.8,49.7,29.97,East,80,0.0,1.0,77,0.00,,,0.00,Wunderground v.1.15,2013-06-08 12:15:00,
2013-06-08 07:20:00,57.3,49.4,29.97,East,80,0.0,0.0,75,0.00,,,0.00,Wunderground v.1.15,2013-06-08 12:20:00,
2013-06-08 07:25:00,57.8,50.3,29.97,East,80,0.0,0.0,76,0.00,,,0.00,Wunderground v.1.15,2013-06-08 12:25:00,
2013-06-08 07:30:00,58.2,50.3,29.98,East,80,0.0,0.0,75,0.00,,,0.00,Wunderground v.1.15,2013-06-08 12:30:00,
2013-06-08 07:35:00,58.9,50.6,29.98,East,80,0.0,0.0,74,0.00,,,0.00,Wunderground v.1.15,2013-06-08 12:35:00,
2013-06-08 07:40:00,59.5,50.8,29.98,East,80,0.0,0.0,73,0.00,,,0.00,Wunderground v.1.15,2013-06-08 12:40:00,
2013-06-08 07:45:00,60.1,51.0,29.98,East,80,0.0,0.0,72,0.00,,,0.00,Wunderground v.1.15,2013-06-08 12:45:00,
2013-06-08 07:50:00,60.2,50.8,29.98,ENE,67,0.0,0.0,71,0.00,,,0.00,Wunderground v.1.15,2013-06-08 12:50:00,
2013-06-08 07:55:00,60.1,50.7,29.98,ENE,67,0.0,0.0,71,0.00,,,0.00,Wunderground v.1.15,2013-06-08 12:55:00,
2013-06-08 08:00:00,59.7,50.7,29.99,NE,55,1.0,1.0,72,0.00,,,0.00,Wunderground v.1.15,2013-06-08 13:00:00,
2013-06-08 08:05:00,59.7,51.4,29.99,NE,53,1.0,1.0,74,0.00,,,0.00,Wunderground v.1.15,2013-06-08 13:05:00,
2013-06-08 08:10:00,59.9,52.0,29.99,NE,52,0.0,0.0,75,0.00,,,0.00,Wunderground v.1.15,2013-06-08 13:10:00,
2013-06-08 08:15:00,60.3,51.6,29.99,NNE,22,0.0,0.0,73,0.00,,,0.00,Wunderground v.1.15,2013-06-08 13:15:00,
2013-06-08 08:20:00,60.5,51.8,29.99,NNE,22,1.0,1.0,73,0.00,,,0.00,Wunderground v.1.15,2013-06-08 13:20:00,
2013-06-08 08:25:00,60.6,51.9,29.99,NNE,22,0.0,1.0,73,0.00,,,0.00,Wunderground v.1.15,2013-06-08 13:25:00,
2013-06-08 08:30:00,61.0,52.3,29.99,NNE,22,0.0,0.0,73,0.00,,,0.00,Wunderground v.1.15,2013-06-08 13:30:00,
2013-06-08 08:35:00,61.4,53.0,29.99,NNE,22,0.0,0.0,74,0.00,,,0.00,Wunderground v.1.15,2013-06-08 13:35:00,
2013-06-08 08:40:00,61.9,53.1,29.99,WNW,302,0.0,1.0,73,0.00,,,0.00,Wunderground v.1.15,2013-06-08 13:40:00,
2013-06-08 08:45:00,62.2,53.4,29.98,NW,316,0.0,1.0,73,0.00,,,0.00,Wunderground v.1.15,2013-06-08 13:45:00,
2013-06-08 08:50:00,62.4,53.6,29.98,NNW,346,1.0,1.0,73,0.00,,,0.00,Wunderground v.1.15,2013-06-08 13:50:00,
2013-06-08 08:55:00,62.9,54.5,29.98,NNW,348,1.0,3.0,74,0.00,,,0.00,Wunderground v.1.15,2013-06-08 13:55:00,
2013-06-08 09:00:00,63.6,54.8,29.98,ENE,67,1.0,1.0,73,0.00,,,0.00,Wunderground v.1.15,2013-06-08 14:00:00,
2013-06-08 09:05:00,64.1,54.9,29.98,NE,40,1.0,1.0,72,0.00,,,0.00,Wunderground v.1.15,2013-06-08 14:05:00,
2013-06-08 09:10:00,64.7,54.3,29.98,North,11,1.0,3.0,69,0.00,,,0.00,Wunderground v.1.15,2013-06-08 14:10:00,
2013-06-08 09:15:00,64.9,53.7,29.98,NNW,342,1.0,3.0,67,0.00,,,0.00,Wunderground v.1.15,2013-06-08 14:15:00,
2013-06-08 09:20:00,65.1,54.7,29.98,NNW,342,1.0,1.0,69,0.00,,,0.00,Wunderground v.1.15,2013-06-08 14:20:00,
2013-06-08 09:25:00,65.4,54.6,29.98,NNW,341,1.0,2.0,68,0.00,,,0.00,Wunderground v.1.15,2013-06-08 14:25:00,
2013-06-08 09:30:00,65.6,54.8,29.98,NNW,341,1.0,3.0,68,0.00,,,0.00,Wunderground v.1.15,2013-06-08 14:30:00,
2013-06-08 09:35:00,65.8,54.5,29.98,NNW,344,1.0,3.0,67,0.00,,,0.00,Wunderground v.1.15,2013-06-08 14:35:00,
2013-06-08 09:40:00,66.1,55.2,29.99,NNW,331,2.0,2.0,68,0.00,,,0.00,Wunderground v.1.15,2013-06-08 14:40:00,
2013-06-08 09:45:00,66.4,55.5,29.98,NNW,328,1.0,2.0,68,0.00,,,0.00,Wunderground v.1.15,2013-06-08 14:45:00,
2013-06-08 09:50:00,66.6,56.1,29.98,NW,319,2.0,2.0,69,0.00,,,0.00,Wunderground v.1.15,2013-06-08 14:50:00,
2013-06-08 09:55:00,67.1,56.2,29.98,ENE,65,1.0,2.0,68,0.00,,,0.00,Wunderground v.1.15,2013-06-08 14:55:00,
2013-06-08 10:05:00,67.6,55.4,29.97,East,81,1.0,1.0,65,0.00,,,0.00,Wunderground v.1.15,2013-06-08 15:05:00,
2013-06-08 10:10:00,67.8,56.0,29.97,NNE,32,1.0,2.0,66,0.00,,,0.00,Wunderground v.1.15,2013-06-08 15:10:00,
2013-06-08 10:15:00,68.2,56.0,29.97,NE,36,2.0,2.0,65,0.00,,,0.00,Wunderground v.1.15,2013-06-08 15:15:00,
2013-06-08 10:20:00,68.4,56.6,29.97,NNE,22,1.0,1.0,66,0.00,,,0.00,Wunderground v.1.15,2013-06-08 15:20:00,
2013-06-08 10:25:00,68.7,56.9,29.97,North,5,1.0,1.0,66,0.00,,,0.00,Wunderground v.1.15,2013-06-08 15:25:00,
2013-06-08 10:30:00,69.0,56.7,29.97,NE,55,1.0,3.0,65,0.00,,,0.00,Wunderground v.1.15,2013-06-08 15:30:00,
2013-06-08 10:35:00,69.5,57.2,29.96,NE,49,1.0,3.0,65,0.00,,,0.00,Wunderground v.1.15,2013-06-08 15:35:00,
2013-06-08 10:40:00,69.9,56.7,29.96,North,5,0.0,1.0,63,0.00,,,0.00,Wunderground v.1.15,2013-06-08 15:40:00,
2013-06-08 10:45:00,70.2,57.9,29.96,North,355,1.0,1.0,65,0.00,,,0.00,Wunderground v.1.15,2013-06-08 15:45:00,
2013-06-08 10:50:00,70.4,56.3,29.97,North,349,1.0,1.0,61,0.00,,,0.00,Wunderground v.1.15,2013-06-08 15:50:00,
2013-06-08 10:55:00,70.5,55.5,29.97,NNW,348,1.0,1.0,59,0.00,,,0.00,Wunderground v.1.15,2013-06-08 15:55:00,
2013-06-08 11:00:00,70.7,56.1,29.98,NW,304,1.0,4.0,60,0.00,,,0.00,Wunderground v.1.15,2013-06-08 16:00:00,
2013-06-08 11:05:00,70.8,55.8,29.98,NW,323,2.0,4.0,59,0.00,,,0.00,Wunderground v.1.15,2013-06-08 16:05:00,
2013-06-08 11:10:00,70.7,53.7,29.98,NW,321,3.0,3.0,55,0.00,,,0.00,Wunderground v.1.15,2013-06-08 16:10:00,
2013-06-08 11:15:00,70.7,51.7,29.98,NW,322,2.0,3.0,51,0.00,,,0.00,Wunderground v.1.15,2013-06-08 16:15:00,
2013-06-08 11:20:00,70.9,51.9,29.98,SSW,200,1.0,1.0,51,0.00,,,0.00,Wunderground v.1.15,2013-06-08 16:20:00,
2013-06-08 11:25:00,71.3,54.3,29.98,SE,126,1.0,1.0,55,0.00,,,0.00,Wunderground v.1.15,2013-06-08 16:25:00,
2013-06-08 11:30:00,71.8,55.3,29.98,SSE,158,0.0,1.0,56,0.00,,,0.00,Wunderground v.1.15,2013-06-08 16:30:00,
2013-06-08 11:35:00,72.1,54.5,29.98,SW,217,1.0,1.0,54,0.00,,,0.00,Wunderground v.1.15,2013-06-08 16:35:00,
2013-06-08 11:40:00,72.4,55.8,29.98,East,82,1.0,2.0,56,0.00,,,0.00,Wunderground v.1.15,2013-06-08 16:40:00,
2013-06-08 11:45:00,72.6,56.0,29.97,South,180,1.0,2.0,56,0.00,,,0.00,Wunderground v.1.15,2013-06-08 16:45:00,
2013-06-08 11:50:00,72.8,55.7,29.97,SE,143,1.0,1.0,55,0.00,,,0.00,Wunderground v.1.15,2013-06-08 16:50:00,
2013-06-08 11:55:00,73.1,55.5,29.97,SSE,156,1.0,1.0,54,0.00,,,0.00,Wunderground v.1.15,2013-06-08 16:55:00,
2013-06-08 12:00:00,73.4,55.2,29.97,SSE,155,1.0,1.0,53,0.00,,,0.00,Wunderground v.1.15,2013-06-08 17:00:00,
2013-06-08 12:05:00,73.5,55.3,29.97,SSE,155,1.0,2.0,53,0.00,,,0.00,Wunderground v.1.15,2013-06-08 17:05:00,
2013-06-08 12:10:00,73.9,55.7,29.97,SSE,153,2.0,6.0,53,0.00,,,0.00,Wunderground v.1.15,2013-06-08 17:10:00,
2013-06-08 12:15:00,73.9,55.2,29.97,South,188,3.0,6.0,52,0.00,,,0.00,Wunderground v.1.15,2013-06-08 17:15:00,
2013-06-08 12:20:00,74.0,55.3,29.97,SSW,198,3.0,3.0,52,0.00,,,0.00,Wunderground v.1.15,2013-06-08 17:20:00,
2013-06-08 12:25:00,74.3,53.3,29.97,SSW,192,2.0,3.0,48,0.00,,,0.00,Wunderground v.1.15,2013-06-08 17:25:00,
2013-06-08 12:30:00,74.5,54.1,29.96,SSW,198,1.0,3.0,49,0.00,,,0.00,Wunderground v.1.15,2013-06-08 17:30:00,
2013-06-08 12:35:00,74.9,53.9,29.96,WNW,286,1.0,4.0,48,0.00,,,0.00,Wunderground v.1.15,2013-06-08 17:35:00,
2013-06-08 12:40:00,75.2,52.4,29.96,NW,320,2.0,2.0,45,0.00,,,0.00,Wunderground v.1.15,2013-06-08 17:40:00,
2013-06-08 12:45:00,75.4,53.2,29.96,WNW,282,3.0,3.0,46,0.00,,,0.00,Wunderground v.1.15,2013-06-08 17:45:00,
2013-06-08 12:50:00,75.4,53.2,29.96,West,279,4.0,4.0,46,0.00,,,0.00,Wunderground v.1.15,2013-06-08 17:50:00,
2013-06-08 12:55:00,75.4,53.2,29.95,West,275,3.0,4.0,46,0.00,,,0.00,Wunderground v.1.15,2013-06-08 17:55:00,
2013-06-08 13:00:00,75.8,52.9,29.95,SW,225,1.0,3.0,45,0.00,,,0.00,Wunderground v.1.15,2013-06-08 18:00:00,
2013-06-08 13:05:00,76.0,53.1,29.95,West,266,2.0,4.0,45,0.00,,,0.00,Wunderground v.1.15,2013-06-08 18:05:00,
2013-06-08 13:10:00,76.4,52.2,29.96,WNW,288,2.0,3.0,43,0.00,,,0.00,Wunderground v.1.15,2013-06-08 18:10:00,
2013-06-08 13:15:00,76.5,53.0,29.95,WNW,296,2.0,3.0,44,0.00,,,0.00,Wunderground v.1.15,2013-06-08 18:15:00,
2013-06-08 13:20:00,76.6,54.3,29.95,NW,323,3.0,3.0,46,0.00,,,0.00,Wunderground v.1.15,2013-06-08 18:20:00,
2013-06-08 13:25:00,76.7,52.5,29.95,WNW,286,4.0,4.0,43,0.00,,,0.00,Wunderground v.1.15,2013-06-08 18:25:00,
2013-06-08 13:30:00,76.8,51.3,29.95,NNW,331,4.0,4.0,41,0.00,,,0.00,Wunderground v.1.15,2013-06-08 18:30:00,
2013-06-08 13:35:00,76.7,51.9,29.95,West,276,3.0,5.0,42,0.00,,,0.00,Wunderground v.1.15,2013-06-08 18:35:00,
2013-06-08 13:40:00,76.6,51.8,29.95,SW,223,3.0,3.0,42,0.00,,,0.00,Wunderground v.1.15,2013-06-08 18:40:00,
2013-06-08 13:45:00,77.1,52.2,29.95,WSW,257,4.0,10.0,42,0.00,,,0.00,Wunderground v.1.15,2013-06-08 18:45:00,
2013-06-08 13:50:00,77.5,51.9,29.95,SW,234,6.0,6.0,41,0.00,,,0.00,Wunderground v.1.15,2013-06-08 18:50:00,
2013-06-08 13:55:00,77.5,51.3,29.95,WSW,241,6.0,6.0,40,0.00,,,0.00,Wunderground v.1.15,2013-06-08 18:55:00,
2013-06-08 14:00:00,77.2,51.7,29.94,SSE,164,5.0,5.0,41,0.00,,,0.00,Wunderground v.1.15,2013-06-08 19:00:00,
2013-06-08 14:05:00,77.6,52.7,29.95,SSW,210,5.0,6.0,42,0.00,,,0.00,Wunderground v.1.15,2013-06-08 19:05:00,
2013-06-08 14:10:00,77.9,52.3,29.95,SW,220,5.0,5.0,41,0.00,,,0.00,Wunderground v.1.15,2013-06-08 19:10:00,
2013-06-08 14:15:00,77.9,50.2,29.95,WNW,303,6.0,6.0,38,0.00,,,0.00,Wunderground v.1.15,2013-06-08 19:15:00,
2013-06-08 14:20:00,78.0,51.0,29.94,WNW,302,4.0,4.0,39,0.00,,,0.00,Wunderground v.1.15,2013-06-08 19:20:00,
2013-06-08 14:25:00,78.1,49.7,29.94,South,186,3.0,4.0,37,0.00,,,0.00,Wunderground v.1.15,2013-06-08 19:25:00,
2013-06-08 14:30:00,77.8,51.5,29.94,South,177,2.0,6.0,40,0.00,,,0.00,Wunderground v.1.15,2013-06-08 19:30:00,
2013-06-08 14:35:00,77.5,51.9,29.94,South,182,2.0,6.0,41,0.00,,,0.00,Wunderground v.1.15,2013-06-08 19:35:00,
2013-06-08 14:40:00,77.4,52.5,29.94,SW,234,2.0,7.0,42,0.00,,,0.00,Wunderground v.1.15,2013-06-08 19:40:00,
2013-06-08 14:45:00,78.1,52.5,29.94,SW,232,5.0,7.0,41,0.00,,,0.00,Wunderground v.1.15,2013-06-08 19:45:00,
2013-06-08 14:50:00,78.4,52.1,29.94,SW,225,6.0,6.0,40,0.00,,,0.00,Wunderground v.1.15,2013-06-08 19:50:00,
2013-06-08 14:55:00,78.4,51.4,29.94,SW,219,5.0,6.0,39,0.00,,,0.00,Wunderground v.1.15,2013-06-08 19:55:00,
2013-06-08 15:00:00,78.0,51.7,29.94,SSW,198,3.0,3.0,40,0.00,,,0.00,Wunderground v.1.15,2013-06-08 20:00:00,
2013-06-08 15:10:00,77.8,51.5,29.94,WSW,249,2.0,2.0,40,0.00,,,0.00,Wunderground v.1.15,2013-06-08 20:10:00,
2013-06-08 15:15:00,77.8,49.4,29.94,SSW,193,2.0,2.0,37,0.00,,,0.00,Wunderground v.1.15,2013-06-08 20:15:00,
2013-06-08 15:20:00,78.1,51.1,29.94,SW,230,2.0,2.0,39,0.00,,,0.00,Wunderground v.1.15,2013-06-08 20:20:00,
2013-06-08 15:25:00,78.9,51.8,29.94,WSW,252,3.0,3.0,39,0.00,,,0.00,Wunderground v.1.15,2013-06-08 20:25:00,
2013-06-08 15:30:00,79.0,50.5,29.94,SW,231,4.0,4.0,37,0.00,,,0.00,Wunderground v.1.15,2013-06-08 20:30:00,
2013-06-08 15:35:00,79.0,49.8,29.94,WSW,257,4.0,5.0,36,0.00,,,0.00,Wunderground v.1.15,2013-06-08 20:35:00,
2013-06-08 15:40:00,78.9,49.7,29.94,WNW,302,4.0,4.0,36,0.00,,,0.00,Wunderground v.1.15,2013-06-08 20:40:00,
2013-06-08 15:45:00,79.3,52.2,29.94,South,173,2.0,4.0,39,0.00,,,0.00,Wunderground v.1.15,2013-06-08 20:45:00,
2013-06-08 15:50:00,79.4,53.0,29.94,SSW,202,2.0,4.0,40,0.00,,,0.00,Wunderground v.1.15,2013-06-08 20:50:00,
2013-06-08 15:55:00,79.2,50.7,29.94,West,269,3.0,4.0,37,0.00,,,0.00,Wunderground v.1.15,2013-06-08 20:55:00,
2013-06-08 16:00:00,79.3,54.9,29.94,SSW,209,1.0,1.0,43,0.00,,,0.00,Wunderground v.1.15,2013-06-08 21:00:00,
2013-06-08 16:10:00,79.8,53.3,29.94,West,273,1.0,3.0,40,0.00,,,0.00,Wunderground v.1.15,2013-06-08 21:10:00,
2013-06-08 16:15:00,79.4,50.9,29.94,NW,306,2.0,3.0,37,0.00,,,0.00,Wunderground v.1.15,2013-06-08 21:15:00,
2013-06-08 16:20:00,79.1,50.6,29.94,NW,322,2.0,2.0,37,0.00,,,0.00,Wunderground v.1.15,2013-06-08 21:20:00,
2013-06-08 16:25:00,79.1,54.0,29.94,SSW,200,2.0,5.0,42,0.00,,,0.00,Wunderground v.1.15,2013-06-08 21:25:00,
2013-06-08 16:30:00,78.9,52.5,29.94,South,180,4.0,6.0,40,0.00,,,0.00,Wunderground v.1.15,2013-06-08 21:30:00,
2013-06-08 16:35:00,78.6,52.9,29.94,SSW,209,5.0,6.0,41,0.00,,,0.00,Wunderground v.1.15,2013-06-08 21:35:00,
2013-06-08 16:40:00,78.3,51.3,29.94,SSW,211,4.0,4.0,39,0.00,,,0.00,Wunderground v.1.15,2013-06-08 21:40:00,
2013-06-08 16:45:00,78.3,53.3,29.94,SSW,206,3.0,4.0,42,0.00,,,0.00,Wunderground v.1.15,2013-06-08 21:45:00,
2013-06-08 16:50:00,78.1,52.5,29.94,SSW,205,3.0,4.0,41,0.00,,,0.00,Wunderground v.1.15,2013-06-08 21:50:00,
2013-06-08 16:55:00,78.1,53.1,29.94,SW,215,3.0,4.0,42,0.00,,,0.00,Wunderground v.1.15,2013-06-08 21:55:00,
2013-06-08 17:00:00,77.9,53.0,29.94,SW,216,4.0,4.0,42,0.00,,,0.00,Wunderground v.1.15,2013-06-08 22:00:00,
2013-06-08 17:10:00,77.9,52.3,29.95,South,189,4.0,4.0,41,0.00,,,0.00,Wunderground v.1.15,2013-06-08 22:10:00,
2013-06-08 17:15:00,77.9,53.0,29.94,South,174,3.0,4.0,42,0.00,,,0.00,Wunderground v.1.15,2013-06-08 22:15:00,
2013-06-08 17:20:00,78.0,53.0,29.94,SSW,195,2.0,2.0,42,0.00,,,0.00,Wunderground v.1.15,2013-06-08 22:20:00,
2013-06-08 17:25:00,78.4,52.7,29.95,WNW,284,2.0,3.0,41,0.00,,,0.00,Wunderground v.1.15,2013-06-08 22:25:00,
2013-06-08 17:30:00,78.8,52.4,29.95,WNW,284,1.0,1.0,40,0.00,,,0.00,Wunderground v.1.15,2013-06-08 22:30:00,
2013-06-08 17:35:00,79.1,54.0,29.95,WNW,284,1.0,1.0,42,0.00,,,0.00,Wunderground v.1.15,2013-06-08 22:35:00,
2013-06-08 17:40:00,79.1,55.3,29.94,WNW,284,0.0,0.0,44,0.00,,,0.00,Wunderground v.1.15,2013-06-08 22:40:00,
2013-06-08 17:45:00,78.7,56.8,29.95,WNW,284,0.0,0.0,47,0.00,,,0.00,Wunderground v.1.15,2013-06-08 22:45:00,
2013-06-08 17:50:00,78.1,56.8,29.94,WNW,284,0.0,0.0,48,0.00,,,0.00,Wunderground v.1.15,2013-06-08 22:50:00,
2013-06-08 17:55:00,77.2,57.1,29.94,WNW,284,0.0,0.0,50,0.00,,,0.00,Wunderground v.1.15,2013-06-08 22:55:00,
2013-06-08 18:00:00,76.6,55.4,29.94,WNW,284,0.0,0.0,48,0.00,,,0.00,Wunderground v.1.15,2013-06-08 23:00:00,
2013-06-08 18:05:00,76.2,57.8,29.94,WNW,284,0.0,0.0,53,0.00,,,0.00,Wunderground v.1.15,2013-06-08 23:05:00,
2013-06-08 21:35:00,67.5,56.6,29.98,East,87,4.0,4.0,68,0.00,,,0.00,Wunderground v.1.15,2013-06-09 02:35:00,
2013-06-08 21:40:00,67.3,56.4,29.98,East,82,4.0,5.0,68,0.00,,,0.00,Wunderground v.1.15,2013-06-09 02:40:00,
2013-06-08 21:45:00,67.3,56.4,29.98,East,88,4.0,4.0,68,0.00,,,0.00,Wunderground v.1.15,2013-06-09 02:45:00,
2013-06-08 21:50:00,67.2,56.3,29.99,East,86,4.0,5.0,68,0.00,,,0.00,Wunderground v.1.15,2013-06-09 02:50:00,
2013-06-08 21:55:00,67.0,56.5,29.99,East,81,4.0,4.0,69,0.00,,,0.00,Wunderground v.1.15,2013-06-09 02:55:00,
2013-06-08 22:00:00,66.7,56.6,29.99,ENE,74,4.0,4.0,70,0.00,,,0.00,Wunderground v.1.15,2013-06-09 03:00:00,
2013-06-08 22:05:00,66.5,56.4,29.99,ENE,74,3.0,4.0,70,0.00,,,0.00,Wunderground v.1.15,2013-06-09 03:05:00,
2013-06-08 22:10:00,66.3,56.6,29.99,East,84,3.0,3.0,71,0.00,,,0.00,Wunderground v.1.15,2013-06-09 03:10:00,
2013-06-08 22:15:00,66.1,56.4,29.99,East,81,3.0,3.0,71,0.00,,,0.00,Wunderground v.1.15,2013-06-09 03:15:00,
2013-06-08 22:20:00,65.9,56.6,29.99,ENE,63,3.0,3.0,72,0.00,,,0.00,Wunderground v.1.15,2013-06-09 03:20:00,
2013-06-08 22:25:00,65.8,56.5,29.99,East,81,3.0,3.0,72,0.00,,,0.00,Wunderground v.1.15,2013-06-09 03:25:00,
2013-06-08 22:35:00,65.8,56.5,29.99,East,83,4.0,4.0,72,0.00,,,0.00,Wunderground v.1.15,2013-06-09 03:35:00,
2013-06-08 22:40:00,65.7,56.4,29.99,East,81,4.0,4.0,72,0.00,,,0.00,Wunderground v.1.15,2013-06-09 03:40:00,
2013-06-08 22:45:00,65.5,56.2,29.99,East,88,3.0,4.0,72,0.00,,,0.00,Wunderground v.1.15,2013-06-09 03:45:00,
2013-06-08 22:50:00,65.2,56.3,29.99,ENE,76,3.0,3.0,73,0.00,,,0.00,Wunderground v.1.15,2013-06-09 03:50:00,
2013-06-08 22:55:00,64.9,56.4,29.99,ENE,67,3.0,3.0,74,0.00,,,0.00,Wunderground v.1.15,2013-06-09 03:55:00,
2013-06-08 23:00:00,64.6,56.1,29.99,ENE,75,2.0,2.0,74,0.00,,,0.00,Wunderground v.1.15,2013-06-09 04:00:00,
2013-06-08 23:05:00,64.4,56.3,29.99,ENE,78,2.0,2.0,75,0.00,,,0.00,Wunderground v.1.15,2013-06-09 04:05:00,
2013-06-08 23:10:00,64.3,56.2,29.99,ENE,67,2.0,2.0,75,0.00,,,0.00,Wunderground v.1.15,2013-06-09 04:10:00,
2013-06-08 23:15:00,64.2,56.1,29.99,ENE,70,2.0,2.0,75,0.00,,,0.00,Wunderground v.1.15,2013-06-09 04:15:00,
2013-06-08 23:20:00,64.1,56.0,29.99,ENE,73,2.0,2.0,75,0.00,,,0.00,Wunderground v.1.15,2013-06-09 04:20:00,